Weather History for Price, UT

Change the Weather History Date:

Sunday, October 16, 2011

  Actual Average Record
Temperature  
Mean Temperature 59 °F -  
Max Temperature 73 °F 60 °F 79 °F (1991)
Min Temperature 46 °F 35 °F 24 °F (1986)
Degree Days  
Heating Degree Days 6    
Growing Degree Days 9 (Base 50)    
Moisture  
Dew Point 32 °F    
Average Humidity 38    
Maximum Humidity 61    
Minimum Humidity 18    
Precipitation  
Precipitation 0.00 in - - ()
Sea Level Pressure  
Sea Level Pressure 29.98 in    
Wind  
Wind Speed 4 mph (NNE)    
Max Wind Speed 9 mph    
Max Gust Speed -    
Visibility 10 miles    
Events      
Averages and records for this station are not official NWS values.
T = Trace of Precipitation, MM = Missing Value Source: NWS Daily Summary

Daily Weather History Graph

Daily Weather History Graph

Search for Another Location

Airport:

Trip Planner

Search our weather history database for the weather conditions in past years. The results will help you decide how hot, cold, wet, or windy it might be!

Date:

Astronomy

Oct. 16, 2011 Rise Set
Actual Time 7:33 AM MDT 6:42 PM MDT
Civil Twilight 7:06 AM MDT 7:09 PM MDT
Nautical Twilight 6:35 AM MDT 7:40 PM MDT
Astronomical Twilight 6:04 AM MDT 8:12 PM MDT
Moon 9:32 PM MDT (10/16) 11:53 AM MDT (10/16)
Length of Visible Light 12h 02m
Length of Day
11h 08m
Waning Gibbous, 82% of the Moon is Illuminated
Oct 16
Waning Gibbous
Oct 19
Last Quarter
Oct 26
New
Nov 2
First Quarter
Nov 10
Full

Hourly Weather History & Observations

Time (MDT) Temp. Windchill Dew Point Humidity Pressure Visibility Wind Dir Wind Speed Gust Speed Precip Events Conditions
12:53 AM 54.0 °F - 34.0 °F 47% 29.97 in 10.0 mi NNE 8.1 mph - N/A   Clear
1:53 AM 52.0 °F - 34.0 °F 50% 29.97 in 10.0 mi Calm Calm - N/A   Clear
2:53 AM 51.1 °F - 35.1 °F 54% 29.97 in 10.0 mi NNE 3.5 mph - N/A   Clear
3:53 AM 48.9 °F - 34.0 °F 56% 29.98 in 10.0 mi NNE 3.5 mph - N/A   Clear
4:53 AM 48.0 °F - 33.1 °F 56% 29.98 in 10.0 mi ENE 3.5 mph - N/A   Clear
5:53 AM 48.0 °F - 33.1 °F 56% 29.99 in 10.0 mi NNE 5.8 mph - N/A   Clear
6:53 AM 46.0 °F 42.5 °F 33.1 °F 61% 30.03 in 10.0 mi North 6.9 mph - N/A   Clear
7:53 AM 46.9 °F - 33.1 °F 59% 30.06 in 10.0 mi North 6.9 mph - N/A   Clear
8:53 AM 55.9 °F - 35.1 °F 45% 30.05 in 10.0 mi Calm Calm - N/A   Clear
9:53 AM 57.0 °F - 37.0 °F 47% 30.05 in 10.0 mi Calm Calm - N/A   Clear
10:53 AM 63.0 °F - 37.0 °F 38% 30.04 in 10.0 mi Calm Calm - N/A   Clear
11:53 AM 66.9 °F - 30.9 °F 26% 30.00 in 10.0 mi ESE 5.8 mph - N/A   Clear
12:53 PM 69.8 °F - 30.2 °F 23% 30.13 in 10.0 mi Variable 4.6 mph - N/A   Clear
1:53 PM 71.1 °F - 28.9 °F 21% 29.95 in 10.0 mi South 3.5 mph - N/A   Clear
2:53 PM 71.1 °F - 28.0 °F 20% 29.94 in 10.0 mi Calm Calm - N/A   Clear
3:53 PM 72.0 °F - 26.1 °F 18% 29.93 in 10.0 mi Variable 3.5 mph - N/A   Clear
4:53 PM 71.1 °F - 25.0 °F 18% 29.93 in 10.0 mi Calm Calm - N/A   Clear
5:53 PM 70.0 °F - 28.9 °F 22% 29.92 in 10.0 mi Calm Calm - N/A   Clear
6:53 PM 64.9 °F - 30.0 °F 27% 29.94 in 10.0 mi Calm Calm - N/A   Scattered Clouds
7:53 PM 57.0 °F - 32.0 °F 39% 29.98 in 10.0 mi NNE 4.6 mph - N/A   Clear
8:53 PM 60.1 °F - 30.0 °F 32% 29.94 in 10.0 mi NNW 8.1 mph - N/A   Partly Cloudy
9:53 PM 62.1 °F - 28.9 °F 29% 29.94 in 10.0 mi West 9.2 mph - N/A   Partly Cloudy
10:53 PM 61.0 °F - 30.9 °F 32% 29.91 in 10.0 mi West 3.5 mph - N/A   Clear
11:53 PM 53.1 °F - 32.0 °F 45% 29.90 in 10.0 mi Calm Calm - N/A   Clear